Date String (YYYY-MM-DD hh:mm:ss) UTC,Instrument flags,Ambient pressure (hPa),Sample flow (lpm),Bypass flow (lpm),Sample temperature (°C),Ambient temperature (°C),ASC tube jacket temperature (°C),LED temperature (°C),Box temperature (°C),Sample RH (%),Span deviation,Mass concentration (μg/m³),Mass concentration (μg/m³),Mass concentration (μg/m³)
DateTimeUTC,F1_M11,P_M11,Q1_M11,Q2_M11,T1_M11,T2_M11,T3_M11,T4_M11,T5_M11,U1_M11,ZSPAN_M11,X0_M11,X2_M11,X1_M11
2022-01-28 10:00:00,,0834.2,4.99,0.00,22.3,22.7,00.0,31.2,24.1,04.7,0000.0,0002.72,0001.60,0001.35
2022-01-28 10:01:00,,0834.2,4.99,0.00,22.2,22.4,00.0,31.2,23.9,04.7,0000.0,0002.64,0001.61,0001.34
2022-01-28 10:02:00,,0834.1,5.02,0.00,22.1,22.0,00.0,31.2,23.7,04.7,0000.0,0002.50,0001.60,0001.33
2022-01-28 10:03:00,,0834.1,4.99,0.00,22.0,21.6,00.0,31.2,23.5,04.7,0000.0,0002.51,0001.60,0001.32
2022-01-28 10:04:00,,0834.1,5.01,0.00,21.9,21.3,00.0,31.1,23.3,04.7,0000.0,0002.28,0001.57,0001.30
2022-01-28 10:05:00,,0834.0,5.00,0.00,21.8,21.1,00.0,31.1,23.2,04.8,0000.0,0003.67,0001.51,0001.27
2022-01-28 10:06:00,,0834.0,5.00,0.00,21.7,21.0,00.0,31.0,23.2,04.8,0000.0,0003.66,0001.49,0001.27
2022-01-28 10:07:00,,0834.0,5.00,0.00,21.8,21.7,00.0,31.0,23.4,04.8,0000.0,0003.67,0001.50,0001.27
2022-01-28 10:08:00,,0834.0,5.01,0.00,22.0,22.5,00.0,31.1,23.7,04.8,0000.0,0003.73,0001.54,0001.28
2022-01-28 10:09:00,,0834.1,5.00,0.00,22.1,23.1,00.0,31.1,24.0,04.7,0000.0,0003.71,0001.53,0001.28
2022-01-28 10:10:00,,0834.0,4.99,0.00,22.2,23.0,00.0,31.1,24.1,04.7,0000.0,0003.76,0001.52,0001.28
2022-01-28 10:11:00,,0834.0,5.00,0.00,22.2,22.6,00.0,31.1,23.9,04.6,0000.0,0004.26,0001.52,0001.28
2022-01-28 10:12:00,,0834.0,4.99,0.00,22.1,22.2,00.0,31.1,23.7,04.6,0000.0,0004.18,0001.49,0001.27
2022-01-28 10:13:00,,0834.0,5.01,0.00,22.0,21.8,00.0,31.1,23.6,04.5,0000.0,0004.14,0001.47,0001.27
2022-01-28 10:14:00,,0834.0,4.98,0.00,21.9,21.5,00.0,31.0,23.4,04.7,0000.0,0004.22,0001.47,0001.26
2022-01-28 10:15:00,,0833.9,5.00,0.00,21.8,21.2,00.0,31.0,23.3,04.8,0000.0,0005.14,0001.49,0001.26
2022-01-28 10:16:00,,0834.0,5.00,0.00,21.8,21.1,00.0,31.0,23.2,04.9,0000.0,0003.92,0001.52,0001.27
2022-01-28 10:17:00,,0833.9,5.00,0.00,21.7,21.0,00.0,31.0,23.1,04.9,0000.0,0003.97,0001.52,0001.27
2022-01-28 10:18:00,,0833.9,5.00,0.00,21.7,21.0,00.0,30.9,23.2,04.8,0000.0,0004.83,0001.49,0001.26
2022-01-28 10:19:00,,0834.0,4.99,0.00,21.8,21.8,00.0,31.0,23.4,04.7,0000.0,0004.77,0001.45,0001.25
2022-01-28 10:20:00,,0834.0,5.01,0.00,21.9,22.6,00.0,31.0,23.8,04.7,0000.0,0005.09,0001.43,0001.23
2022-01-28 10:21:00,,0834.0,5.00,0.00,22.1,23.2,00.0,31.0,24.0,04.8,0000.0,0005.59,0001.44,0001.22
2022-01-28 10:22:00,,0834.0,5.00,0.00,22.2,22.9,00.0,31.1,24.0,04.6,0000.0,0005.11,0001.43,0001.20
2022-01-28 10:23:00,,0833.9,5.00,0.00,22.1,22.5,00.0,31.0,23.8,04.6,0000.0,0005.05,0001.41,0001.19
2022-01-28 10:24:00,,0833.9,5.00,0.00,22.1,22.1,00.0,31.0,23.7,04.6,0000.0,0005.03,0001.39,0001.18
2022-01-28 10:25:00,,0833.9,4.99,0.00,22.0,21.7,00.0,31.0,23.5,04.6,0000.0,0004.86,0001.37,0001.19
2022-01-28 10:26:00,,0833.9,5.01,0.00,21.9,21.5,00.0,31.0,23.4,04.6,0000.0,0004.02,0001.33,0001.18
2022-01-28 10:27:00,,0833.9,5.00,0.00,21.9,21.3,00.0,31.0,23.3,04.8,0000.0,0004.39,0001.33,0001.17
2022-01-28 10:28:00,,0834.0,5.01,0.00,21.8,21.2,00.0,31.0,23.3,05.5,0000.0,0005.28,0001.39,0001.18
2022-01-28 10:29:00,,0833.9,5.00,0.00,21.8,21.1,00.0,30.9,23.3,05.4,0000.0,0004.48,0001.44,0001.21
2022-01-28 10:30:00,,0833.9,5.00,0.00,21.7,21.1,00.0,30.9,23.2,05.3,0000.0,0004.52,0001.46,0001.23
2022-01-28 10:31:00,,0833.9,4.99,0.00,21.8,21.7,00.0,30.9,23.4,05.2,0000.0,0004.24,0001.49,0001.26
2022-01-28 10:32:00,,0833.9,5.01,0.00,21.9,22.6,00.0,30.9,23.8,05.1,0000.0,0003.85,0001.57,0001.28
2022-01-28 10:33:00,,0833.9,4.99,0.00,22.1,23.1,00.0,31.0,24.0,05.1,0000.0,0004.09,0001.64,0001.31
2022-01-28 10:34:00,,0833.9,5.01,0.00,22.2,22.9,00.0,31.0,24.1,05.6,0000.0,0004.25,0001.71,0001.37
2022-01-28 10:35:00,,0833.9,5.00,0.00,22.2,22.6,00.0,31.0,24.0,05.6,0000.0,0004.87,0001.81,0001.44
2022-01-28 10:36:00,,0833.8,5.00,0.00,22.2,22.4,00.0,31.0,23.9,05.6,0000.0,0005.17,0001.92,0001.49
2022-01-28 10:37:00,,0833.9,5.00,0.00,22.2,22.2,00.0,31.0,23.9,05.7,0000.0,0005.56,0002.05,0001.56
2022-01-28 10:38:00,,0833.9,4.99,0.00,22.1,22.0,00.0,31.0,23.8,06.4,0000.0,0005.87,0002.28,0001.69
2022-01-28 10:39:00,,0833.9,4.99,0.00,22.1,21.8,00.0,31.0,23.8,06.7,0000.0,0006.71,0002.57,0001.84
2022-01-28 10:40:00,,0833.9,5.01,0.00,22.1,21.7,00.0,31.0,23.8,06.1,0000.0,0007.51,0002.73,0001.93
2022-01-28 10:41:00,,0833.9,5.00,0.00,22.1,21.6,00.0,31.0,23.7,05.8,0000.0,0007.65,0002.84,0001.99
2022-01-28 10:42:00,,0833.9,4.99,0.00,22.0,21.5,00.0,31.0,23.7,05.5,0000.0,0007.74,0002.90,0002.02
2022-01-28 10:43:00,,0834.0,5.01,0.00,22.0,21.4,00.0,31.0,23.7,05.4,0000.0,0007.69,0002.87,0002.02
2022-01-28 10:44:00,,0834.0,5.00,0.00,22.0,21.4,00.0,31.0,23.6,05.5,0000.0,0007.70,0002.88,0002.04
2022-01-28 10:45:00,,0834.0,4.99,0.00,22.0,21.4,00.0,31.0,23.6,05.5,0000.0,0007.73,0002.87,0002.02
2022-01-28 10:46:00,,0834.0,5.02,0.00,22.0,22.0,00.0,31.0,23.8,05.6,0000.0,0007.54,0002.87,0002.00
2022-01-28 10:47:00,,0834.0,4.99,0.00,22.2,22.9,00.0,31.0,24.1,05.3,0000.0,0007.47,0002.81,0001.97
2022-01-28 10:48:00,,0833.9,5.01,0.00,22.3,23.3,00.0,31.1,24.3,05.1,0000.0,0007.27,0002.72,0001.93
2022-01-28 10:49:00,,0833.9,5.00,0.00,22.4,23.0,00.0,31.1,24.3,04.9,0000.0,0006.74,0002.52,0001.79
2022-01-28 10:50:00,,0833.9,5.00,0.00,22.4,22.7,00.0,31.1,24.2,04.8,0000.0,0004.56,0002.19,0001.62
2022-01-28 10:51:00,,0834.0,5.00,0.00,22.3,22.5,00.0,31.2,24.1,05.6,0000.0,0003.98,0002.11,0001.57
2022-01-28 10:52:00,,0833.9,4.99,0.00,22.3,22.3,00.0,31.2,24.0,05.9,0000.0,0004.75,0002.16,0001.60
2022-01-28 10:53:00,,0833.8,5.01,0.00,22.3,22.1,00.0,31.2,24.0,05.4,0000.0,0005.01,0002.13,0001.58
2022-01-28 10:54:00,,0833.8,5.00,0.00,22.3,21.9,00.0,31.2,23.9,04.9,0000.0,0004.99,0002.07,0001.54
2022-01-28 10:55:00,,0833.7,4.98,0.00,22.2,21.8,00.0,31.1,23.9,04.8,0000.0,0004.80,0002.02,0001.50
2022-01-28 10:56:00,,0833.8,5.01,0.00,22.2,21.7,00.0,31.1,23.8,04.6,0000.0,0004.74,0001.98,0001.47
2022-01-28 10:57:00,,0833.8,5.00,0.00,22.2,21.6,00.0,31.1,23.8,04.8,0000.0,0004.49,0001.88,0001.42
2022-01-28 10:58:00,,0833.8,5.01,0.00,22.1,21.5,00.0,31.1,23.8,04.8,0000.0,0004.45,0001.87,0001.39
2022-01-28 10:59:00,,0833.9,5.01,0.00,22.1,21.4,00.0,31.1,23.7,04.7,0000.0,0004.35,0001.84,0001.36
